Regional Weather Roundup
Issued by NWS Northern Indiana

Home | Current Version | Previous Version | Graphics & Text | Print | Product List | Glossary On
Versions: 1 2 3 4 5 6 7 8 9 10 11 12 13 14 15 16 17 18 19 20 21 22 23 24 25 26 27 28 29 30 31 32 33 34 35 36 37 38 39 40 41 42 43 44 45 46 47 48 49 50
000
ASUS43 KIWX 020700
RWRIWX

KIWX WEATHER ROUNDUP
NATIONAL WEATHER SERVICE NORTHERN INDIANA
200 AM EST FRI DEC 02 2016

NOTE: "FAIR" INDICATES FEW OR NO CLOUDS BELOW 12,000 FEET WITH NO
SIGNIFICANT WEATHER AND/OR OBSTRUCTIONS TO VISIBILITY.

* THESE STATIONS ARE NOT UNDER NWS QUALITY CONTROL. THEY ALSO MAY NOT
  REPORT WEATHER SUCH AS PRECIPITATION OR FOG.

INZ001>027-020800-
NORTHERN INDIANA

CITY           SKY/WX    TMP DP  RH WIND       PRES   REMARKS
SOUTH BEND     CLOUDY    36  32  85 SW13      30.00R
GOSHEN         CLOUDY    37  31  78 SW14      29.99R
MONTICELLO*    CLOUDY    36  28  74 SW9       30.04R
ANGOLA*        CLOUDY    36  34  93 W10       29.97R
FORT WAYNE     CLOUDY    36  31  82 W12       30.02R
PERU/GRISSOM   CLOUDY    36  32  88 W12       30.02S

$$
INZ028>050-020800-
CENTRAL INDIANA

CITY           SKY/WX    TMP DP  RH WIND       PRES   REMARKS
LAFAYETTE      CLOUDY    36  30  79 SW8       30.07R
KOKOMO*        CLOUDY    36  30  79 SW14      30.05S
MUNCIE*        CLOUDY    37  29  72 W9        30.05R
INDIANAPOLIS   CLOUDY    36  28  73 W12       30.08R

$$
MIZ043>046-050>051-056>058-064>065-071>073-077>080-020800-
SOUTHWEST LOWER MICHIGAN

CITY           SKY/WX    TMP DP  RH WIND       PRES   REMARKS
BATTLE CREEK   LGT RAIN  37  36  96 W13       29.94R
BENTON HARBOR  CLOUDY    41  33  73 W16       29.97R
COLDWATER*     CLOUDY    37  32  82 W13G18    29.95R
HILLSDALE*     CLOUDY    36  32  87 W12G17    29.92S
HOLLAND        LGT RAIN  39  35  86 W9        29.94R
GRAND RAPIDS   CLOUDY    39  33  79 W9        29.92S
KALAMAZOO      LGT RAIN  38  33  82 SW9       29.95R
STURGIS*       CLOUDY    37  32  84 W8        29.96S
THREE RIVERS*  CLOUDY    38  34  87 SW9       29.97R

$$
OHZ001>008-015>018-024>025-020800-
NORTHWEST OHIO

CITY           SKY/WX    TMP DP  RH WIND       PRES   REMARKS
DEFIANCE       CLOUDY    38  31  76 SW9       29.99R
FINDLAY        CLOUDY    38  30  73 W14       29.99R
TOLEDO EXPRESS MOCLDY    37  33  85 SW17      29.96R
TOLEDO METCALF MOCLDY    36  33  89 SW12      29.97R
LIMA           CLOUDY    36  31  82 W13       30.01R

$$
AND FOR LAKE MICHIGAN COASTAL AND OPEN LAKE BUOY OBSERVATIONS

STATION/POSITION TEMP    WIND        PRES    VSBY  WAVE
                 AIR SEA DIR/SP/G                  HT/PER
                 (F)     (DEG/KT/KT) (MB)    (MI)  (FT/S)
CALUMET HARBOR    37     230/  4/ 10 1015.9R
MICHIGAN CITY     39     230/ 22/ 24   N/A
BURNS HARBOR      39     230/ 15/ 18 1016.9R
SAINT JOSEPH      42     270/ 15/ 18 1015.6
SOUTH LAKE BUOY   41 49  270/ 19/ 23 1013.9          4/ 5

$$
&&




USA.gov is the U.S. government's official web portal to all federal, state and local government web resources and services.